Back to catalog

FENGYUN 1C DEB

AliveSSO
NORAD 30151·DEBRIS·🇨🇳 China

Launched May 10, 1999 from Taiyuan Satellite Launch Center

Loading…

Next Passes (next 24 hours)

TLE

FreshSource: Space-Track

Epoch: Sep 14, 2026, 06:56 UTC

1 30151U 99025TG  26257.28920372  .00000392  00000-0  34885-3 0  9995
2 30151  99.0649 260.9168 0161074 257.6757 114.7594 13.84913052990598

Track FENGYUN 1C DEB in real time with AllMySat

Download on the App Store